ラ・サグラ彗星

279P/La Sagra (2023)

English version
Home page
Updated on May 13, 2024

---------------------------------------------------------------------

・ プロフィール

・ 写真集

・ 軌道要素

Epoch 2023 Sept. 13.0 TT = JDT 2460200.5
T 2023 Apr. 19.50078 TT                                 Rudenko
q   2.1479056            (2000.0)            P               Q
n   0.14573205     Peri.    5.84060     +0.99031088     +0.13727527
a   3.5762894      Node   346.21597     -0.13070678     +0.87040563
e   0.3994039      Incl.    5.04996     -0.04690523     +0.47281026
P   6.76
>From 301 observations 2002 July 12-2023 Dec. 7, mean residual 0".6.

・ 光度変化

        m1 = 15.2 + 5 logΔ + 10.0 log r

---------------------------------------------------------------------

軌道要素はM.P.E.C. 2023-X256に掲載されたものです。
光度グラフはComet for Windowsで作成したものです。

---------------------------------------------------------------------

Copyright(C) Seiichi Yoshida (comet@aerith.net). All rights reserved.